GEFSSE_con_probscp_030.txt.gz
Probability
0 0 0 0 0 0 0 0 0 0 0 0 0 0 0 0 0 0 0 0 0 0 0 0 0 0 0 0 0 0 0 0 0 0 0 0 0 0 0 0 0 0 0
0 0 0 0 0 0 0 0 0 0 0 0 0 0 0 0 0 0 0 0 0 0 0 0 0 0 0 0 0 0 0 0 0 0 0 0 0 0 0 0 0 0 0
0 0 0 0 0 0 0 0 0 0 0 0 0 0 0 0 0 0 0 0 0 0 0 0 0 0 0 0 0 0 0 0 0 0 0 0 0 0 0 0 0 0 0
0 0 0 0 0 0 0 0 0 0 0 0 0 0 0 0 0 0 0 0 0 0 0 0 0 0 0 0 0 0 0 0 0 0 0 0 0 0 0 0 0 0 0
0 0 0 0 0 0 0 0 0 0 0 0 0 0 0 0 0 0 0 0 0 0 0 0 0 0 0 0 0 0 0 0 0 0 0 0 0 0 0 0 0 0 0
0 0 0 0 0 0 0 0 0 0 0 0 0 0 0 0 0 0 0 0 0 0 0 0 0 0 0 0 0 0 0 0 0 0 0 0 0 0 0 0 0 0 0
0 0 0 0 0 0 0 0 0 0 0 0 0 0 0 0 0 0 0 0 0 0 0 0 0 0 0 0 0 0 0 0 0 0 0 0 0 0 0 0 0 0 0
0 0 0 0 0 0 0 0 0 0 0 0 0 0 0 0 0 0 0 0 0 0 0 0 0 0 0 0 0 0 0 0 0 0 0 0 0 0 0 0 0 0 0
0 0 0 0 0 0 0 0 0 0 0 0 0 0 0 0 0 0 0 0 0 0 0 0 0 0 0 0 0 0 0 0 0 0 0 0 0 0 0 0 1 0 0
0 0 0 0 0 0 0 0 0 0 0 0 0 0 0 0 0 0 0 0 0 0 0 0 0 0 0 0 0 0 0 0 0 0 0 0 0 0 0 1 3 2 1
0 0 0 0 0 0 0 0 0 0 0 0 0 0 0 0 0 0 0 0 0 0 0 1 1 0 0 0 0 0 0 0 0 0 0 0 0 0 0 2 5 5 3
0 0 0 0 0 0 0 0 0 0 0 0 0 0 0 0 0 0 0 0 0 0 0 1 1 0 0 0 0 0 0 0 0 0 0 0 0 1 1 3 6 6 4
1 0 0 0 0 0 0 0 0 0 0 0 0 0 0 0 0 0 0 0 0 0 0 1 1 0 0 0 0 0 0 0 0 0 0 0 1 2 2 3 5 4 2
4 1 0 0 0 0 0 0 0 0 0 0 0 0 0 0 0 0 0 0 0 0 0 0 0 0 0 0 0 0 0 0 0 0 0 0 1 3 3 2 2 2 2
8 5 2 1 0 0 0 0 0 0 0 0 0 0 0 0 0 0 0 0 0 0 0 0 0 0 0 0 0 0 0 0 0 0 0 1 4 6 6 4 3 3 3
17 16 13 8 4 3 2 1 0 0 0 0 0 0 0 0 0 0 0 0 0 0 0 0 0 0 0 0 0 0 0 0 0 0 0 1 6 11 11 9 6 4 3
32 36 35 27 20 16 12 6 2 2 1 1 0 0 1 1 1 1 1 0 0 0 0 0 0 0 0 0 0 0 0 0 0 0 0 1 4 9 14 16 14 9 6
50 58 61 53 44 38 29 18 12 11 9 5 3 2 4 4 4 4 3 2 2 1 1 0 0 0 0 0 0 0 0 0 0 0 0 0 1 3 9 18 23 18 12
67 74 79 77 70 63 54 44 38 34 25 15 10 11 13 15 14 10 7 5 4 2 1 0 0 0 0 0 0 0 0 0 0 0 0 0 0 0 3 12 20 19 16
80 83 86 89 88 85 82 77 70 58 42 26 21 23 27 30 28 22 18 14 10 7 3 1 1 0 0 0 0 0 0 0 0 0 0 0 0 0 1 4 8 10 10
84 86 88 92 95 97 97 96 88 72 51 34 27 31 36 39 40 38 33 25 18 13 7 3 3 1 0 0 0 0 0 0 0 0 0 0 0 0 1 1 1 2 2
79 82 86 89 92 95 98 98 92 78 59 41 32 33 36 39 45 47 40 29 22 17 11 6 4 3 1 1 0 0 0 0 0 0 0 0 0 0 0 0 0 0 0
71 74 78 81 85 88 92 95 93 84 70 52 38 32 31 34 39 40 36 27 21 18 13 8 5 3 2 1 0 0 0 0 0 0 0 0 0 0 0 0 0 0 0
66 67 70 75 78 80 84 88 88 84 74 59 45 35 29 27 28 29 29 25 21 16 11 7 5 3 1 0 0 0 0 0 0 0 0 0 0 0 0 0 0 0 0
67 66 66 69 71 72 75 78 79 77 70 61 51 39 30 25 22 23 24 21 17 12 8 5 4 2 0 0 0 0 0 0 0 0 0 0 0 0 0 0 0 0 0
69 67 65 65 66 66 69 71 72 72 68 64 55 41 30 24 20 20 20 17 12 9 5 3 3 2 1 0 0 0 0 0 0 0 0 0 0 0 0 0 0 0 0

GEFSSE_con_probscp_036.txt.gz
Probability
0 0 0 0 0 0 0 0 0 0 0 0 0 1 1 1 0 0 0 0 0 0 0 0 0 0 0 0 0 0 0 0 0 0 0 0 0 0 0 0 0 0 0
0 0 0 0 0 0 0 0 0 0 0 0 0 0 1 1 0 0 0 0 0 0 0 0 0 0 0 0 0 0 0 0 0 0 0 0 0 0 0 0 0 0 0
0 0 0 0 0 0 0 0 0 0 0 0 0 0 0 0 0 0 0 0 0 0 0 0 0 0 0 0 0 0 0 0 0 0 0 0 0 0 0 0 0 0 0
0 0 0 0 0 0 0 0 0 0 0 0 0 0 0 0 0 1 0 0 0 0 0 0 0 0 0 0 0 0 0 0 0 0 0 0 0 0 0 0 0 0 0
0 0 0 0 0 0 0 0 0 0 0 0 0 0 0 0 0 0 0 0 0 0 0 0 0 0 0 0 0 0 0 0 0 0 0 0 0 0 0 0 0 0 0
0 0 0 0 0 0 0 0 0 0 0 0 0 0 0 0 0 0 0 0 0 0 0 0 0 0 0 0 0 0 0 0 0 0 0 0 0 0 0 0 0 0 0
0 0 0 0 0 0 0 0 0 0 0 0 0 0 0 0 0 0 0 0 0 0 0 0 0 0 0 0 0 0 0 0 0 0 0 0 0 0 0 0 0 0 0
0 0 0 0 0 0 0 0 0 0 0 0 0 0 0 0 0 0 0 0 0 0 0 0 0 0 0 0 0 0 0 0 0 0 0 0 0 0 0 0 0 0 0
0 0 0 0 0 0 0 0 0 0 0 0 0 0 0 0 0 0 0 0 0 0 0 0 0 0 0 0 0 0 0 0 0 0 0 0 0 0 0 0 0 0 0
0 0 0 0 0 0 0 0 0 0 0 0 0 0 0 0 0 0 0 0 0 0 0 0 0 0 0 0 0 0 0 0 0 0 0 0 0 0 0 0 0 0 0
0 0 0 0 0 0 0 0 0 0 0 0 0 1 0 0 0 0 0 0 0 0 0 0 0 0 0 0 0 0 0 0 0 0 0 0 0 0 0 0 0 0 0
0 0 0 0 0 0 0 0 0 0 0 0 0 0 0 0 0 0 0 0 0 0 0 0 0 0 0 0 0 0 0 0 0 0 0 0 0 0 0 0 0 0 0
0 0 0 0 0 0 0 0 0 0 0 0 0 0 0 0 0 0 0 0 0 0 0 0 0 0 0 0 0 0 0 0 0 0 0 0 0 0 0 0 0 0 0
0 0 0 0 0 0 0 0 0 0 0 0 0 0 0 0 0 0 0 0 0 0 0 0 0 0 0 0 0 0 0 0 0 0 0 0 0 0 0 0 0 0 0
0 0 0 0 0 0 0 0 0 0 0 0 0 0 0 0 0 0 0 0 0 0 0 0 0 0 0 0 0 0 0 0 0 0 0 0 0 0 0 0 0 0 0
1 0 0 0 0 0 0 0 0 0 0 0 0 0 0 0 0 0 0 0 0 0 0 0 0 0 0 0 0 0 0 0 0 0 0 0 0 0 0 0 0 0 0
8 5 2 2 1 0 0 0 0 0 0 0 0 0 0 0 0 0 0 0 0 0 0 0 0 0 0 0 0 0 0 0 0 0 0 0 0 0 0 0 0 0 0
27 19 12 9 7 4 3 3 3 2 1 0 0 0 0 1 1 1 0 0 0 0 0 0 0 0 0 0 0 0 0 0 0 0 0 0 0 0 0 0 0 0 0
54 45 36 30 23 17 14 12 10 8 6 4 2 3 3 3 3 2 1 0 0 0 0 0 0 0 0 0 0 0 0 0 0 0 0 0 0 0 0 0 0 0 0
70 68 65 60 52 44 40 34 27 21 15 9 7 7 7 7 6 3 1 0 0 1 2 2 1 0 0 0 0 0 0 0 0 0 0 0 0 0 0 0 0 0 0
68 73 77 77 74 71 69 64 54 43 32 23 19 16 13 12 11 7 3 1 2 4 5 5 3 1 0 1 1 0 0 0 0 0 0 0 0 0 0 0 0 0 0
58 62 70 75 77 79 81 80 75 64 53 46 39 31 24 20 19 14 7 3 3 5 6 5 3 1 1 2 2 1 0 0 0 0 0 0 0 0 0 0 0 0 0
50 50 57 64 68 73 78 81 79 73 66 60 53 42 31 25 23 18 10 6 5 6 6 5 3 2 2 2 1 0 0 0 0 0 0 0 0 0 0 0 0 0 0
42 42 45 52 59 66 73 76 75 70 64 59 51 41 28 21 20 18 12 8 7 6 5 4 3 3 3 3 1 0 0 0 0 0 0 0 0 0 0 0 0 0 0
29 32 37 44 52 58 63 65 65 61 54 46 39 32 21 13 13 13 9 7 6 4 3 2 2 2 2 2 1 1 0 0 0 0 0 0 0 0 0 0 0 0 0
20 24 32 40 46 52 55 56 55 52 44 35 29 23 14 8 8 8 6 4 4 3 1 0 0 0 1 1 1 1 0 0 0 0 0 0 0 0 0 0 0 0 0

GEFSSE_con_probscp_042.txt.gz
Probability
0 0 0 0 0 0 0 0 0 0 0 0 0 0 0 0 0 0 0 0 0 0 0 0 0 0 0 0 0 0 0 0 0 0 0 0 0 0 0 0 0 0 0
0 0 0 0 0 0 0 0 0 0 0 0 0 0 0 0 0 0 0 0 0 0 0 0 0 0 0 0 0 0 0 0 0 0 0 0 0 0 0 0 0 0 0
0 0 0 0 0 0 0 0 0 0 0 0 0 0 0 0 0 0 0 0 0 0 0 0 0 0 0 0 0 0 0 0 0 0 0 0 0 0 0 0 0 0 0
0 0 0 0 0 0 0 0 0 0 0 0 0 0 0 0 0 0 0 0 0 0 0 0 0 0 0 0 0 0 0 0 0 0 0 0 0 0 0 0 0 0 0
0 0 0 0 0 0 0 0 0 0 0 0 0 0 0 0 0 0 0 0 0 0 0 0 0 0 0 0 0 0 0 0 0 0 0 0 0 0 0 0 0 0 0
0 0 0 0 0 0 0 0 0 0 0 0 0 0 0 0 0 0 0 0 0 0 0 0 0 0 0 0 0 0 0 0 0 0 0 0 0 0 0 0 0 0 0
0 0 0 0 0 0 0 0 0 0 0 0 0 0 0 0 0 0 0 0 0 0 0 0 0 0 0 0 0 0 0 0 0 0 0 0 0 0 0 0 0 0 0
0 0 0 0 0 0 0 0 0 0 0 0 0 0 0 0 0 0 0 0 0 0 0 0 0 0 0 0 0 0 0 0 0 0 0 0 0 0 0 0 0 0 0
0 0 0 0 0 0 0 0 0 0 0 0 0 0 0 0 0 0 0 0 0 0 0 0 0 0 0 0 0 0 0 0 0 0 0 0 0 0 0 0 0 0 0
0 0 0 0 0 0 0 0 0 0 0 0 0 0 0 0 0 0 0 0 0 0 0 0 0 0 0 0 0 0 0 0 0 0 0 1 1 1 0 0 0 0 0
0 0 0 0 0 0 0 0 0 0 0 0 0 0 0 0 0 0 0 0 0 0 0 0 0 0 0 0 0 0 0 0 0 0 0 1 1 1 0 0 0 0 0
0 0 0 0 0 0 0 0 0 0 0 0 0 0 0 0 0 0 0 0 0 0 0 0 0 0 0 0 0 0 0 0 0 0 0 0 0 0 0 0 0 0 0
0 0 0 0 0 0 0 0 0 0 0 0 0 0 0 0 0 0 0 0 0 0 0 0 0 0 0 0 0 0 0 0 0 0 0 0 0 0 0 0 0 0 0
1 1 1 1 1 1 1 0 0 0 0 0 1 0 0 0 0 0 0 0 0 0 0 0 0 0 0 0 0 0 0 0 0 0 1 1 1 0 0 0 0 0 1
3 3 4 6 7 7 6 3 1 0 0 1 2 1 0 0 0 0 0 0 0 0 0 0 0 0 0 0 0 0 0 0 0 0 1 2 2 1 1 0 0 0 1
6 6 8 13 19 21 16 8 3 1 1 1 2 3 4 3 3 3 3 2 1 0 0 0 0 0 0 0 0 0 0 0 0 0 1 3 3 3 2 1 1 1 1
11 12 14 19 32 41 36 22 10 3 3 5 8 12 15 14 14 14 12 8 6 5 6 6 4 3 3 1 0 0 0 0 0 1 2 3 3 4 4 4 2 1 2
27 31 33 35 47 60 62 49 31 21 20 22 27 33 37 35 35 37 31 24 23 21 20 20 16 14 13 9 4 1 0 0 0 1 2 2 2 3 4 6 4 3 3
53 59 64 64 66 76 83 77 63 55 53 52 55 61 63 61 62 62 55 48 45 42 38 34 31 30 27 20 11 4 1 0 0 0 1 1 1 1 2 4 4 3 3
74 80 86 86 85 89 94 93 88 83 81 78 78 80 81 80 81 79 74 68 65 60 52 44 39 38 34 26 17 8 2 0 0 0 0 0 0 0 0 2 4 4 4
83 87 91 93 93 95 97 98 96 94 93 91 88 87 87 87 87 85 82 81 80 72 62 51 45 40 34 27 19 11 4 1 0 0 0 0 0 0 0 1 3 5 6
90 91 93 94 94 94 95 96 96 95 93 92 91 89 87 87 87 85 84 86 85 79 68 59 52 44 36 30 23 14 8 5 2 1 1 1 0 0 0 1 2 4 6
94 93 93 93 92 93 94 94 94 92 90 91 91 90 88 87 85 83 81 81 81 77 72 65 57 48 40 35 29 22 16 11 6 3 1 1 0 0 0 0 0 1 2
85 86 88 89 90 91 93 93 91 91 90 90 90 89 87 85 83 80 76 74 73 71 68 64 56 46 38 35 33 31 25 17 10 4 1 1 0 0 0 0 0 0 0
64 67 74 81 85 88 91 91 91 91 90 89 88 86 84 83 81 77 71 67 66 63 61 56 49 39 33 32 32 31 26 18 10 4 1 0 0 0 0 0 0 0 0
45 51 62 73 79 84 89 91 91 91 90 89 86 83 82 83 82 75 67 64 62 59 57 52 41 33 30 30 29 27 22 15 9 4 1 0 0 0 0 0 0 0 0

GEFSSE_con_probscp_048.txt.gz
Probability
0 0 0 0 0 0 0 0 0 0 0 0 0 0 0 0 0 0 0 0 0 0 0 0 0 0 0 0 0 0 0 0 0 0 0 0 0 0 0 0 0 0 0
0 0 0 0 0 0 0 0 0 0 0 0 0 0 0 0 0 0 0 0 0 0 0 0 0 0 0 0 0 0 0 0 0 0 0 0 0 0 0 0 0 0 0
0 0 0 0 0 0 0 0 0 0 0 0 0 0 0 0 0 0 0 0 0 0 0 0 0 0 0 0 0 0 0 0 0 0 0 0 0 0 0 0 0 0 0
0 0 0 0 0 0 0 0 0 0 0 0 0 0 0 0 0 0 0 0 0 0 0 0 0 0 0 0 0 0 0 0 0 0 0 0 0 0 0 0 0 0 0
0 0 0 0 0 0 0 0 0 0 0 0 0 0 0 0 0 0 0 0 0 0 0 0 0 0 0 0 0 0 0 0 0 0 0 0 0 0 0 0 0 0 0
0 0 0 0 0 0 0 0 0 0 0 0 0 0 0 0 0 0 0 0 0 0 0 0 0 0 0 0 0 0 0 0 0 0 0 0 0 1 0 0 0 0 0
1 1 0 0 0 0 0 0 0 0 0 0 0 0 0 0 0 0 0 0 0 0 0 0 0 0 0 0 0 0 0 0 0 0 0 0 3 6 4 1 0 0 0
9 7 2 0 0 0 0 0 0 0 0 0 0 0 0 0 0 0 0 0 0 0 0 0 0 0 0 0 0 0 0 0 0 0 0 2 10 17 14 5 0 0 0
23 18 7 0 1 1 0 0 0 0 0 0 0 0 0 0 0 0 0 0 0 0 0 0 0 0 0 0 0 0 0 0 0 0 0 6 21 31 25 10 2 0 0
32 28 13 1 1 1 0 0 0 0 0 0 0 0 0 0 0 0 0 0 0 0 0 0 0 0 0 0 0 0 0 0 0 0 1 11 33 43 31 13 4 1 0
28 31 19 6 3 2 0 0 0 0 0 0 0 0 0 0 0 1 6 12 12 8 4 2 1 1 0 0 1 2 1 0 0 0 5 22 45 50 32 14 5 2 1
17 25 23 17 13 7 4 5 3 0 2 2 5 10 9 3 1 6 22 40 39 24 11 5 3 2 0 0 2 4 3 1 0 0 11 36 54 50 31 14 6 2 1
14 22 30 37 39 25 18 22 16 9 10 12 19 32 30 15 6 15 43 66 62 41 21 11 8 6 2 2 3 5 5 3 1 3 20 47 60 51 33 18 8 4 2
36 42 52 66 72 59 49 53 47 34 35 40 49 61 60 43 25 31 61 81 75 58 40 26 23 21 13 9 5 4 6 7 5 9 30 57 66 57 44 30 17 8 4
73 76 83 91 93 88 82 83 79 71 68 75 82 86 86 77 60 59 78 92 87 78 67 56 50 45 35 22 11 9 10 11 11 18 40 69 78 70 59 45 30 17 11
96 97 99 100 100 99 98 97 96 92 91 94 98 99 98 96 90 88 93 98 96 91 86 81 76 69 57 42 29 24 22 20 21 29 49 73 86 84 74 59 46 34 26
99 100 100 100 100 100 100 99 99 97 96 98 100 100 100 100 100 100 100 100 100 97 94 92 89 83 75 65 55 44 38 37 39 48 58 67 76 81 81 75 64 51 40
99 100 100 100 100 100 100 100 99 98 98 99 100 100 100 100 100 100 100 100 100 99 98 96 94 91 87 82 73 59 49 51 57 64 67 65 64 69 79 82 75 62 50
100 100 100 100 100 100 100 100 100 100 100 100 100 100 100 100 100 100 100 99 99 99 99 98 96 94 93 89 78 63 53 52 59 65 68 65 63 68 70 71 70 61 50
100 100 100 100 100 100 100 100 100 100 100 100 100 100 100 100 100 100 100 99 99 99 98 96 94 93 92 87 74 61 52 48 49 55 58 58 59 62 57 54 57 50 42
99 100 100 100 100 100 100 100 100 100 100 100 100 100 100 100 100 100 100 100 99 99 97 95 92 88 85 79 69 60 52 46 41 43 49 51 47 44 41 42 44 41 36
96 97 99 100 99 99 100 100 100 100 100 100 100 99 99 100 100 100 100 100 100 99 97 94 90 85 77 70 63 58 52 46 37 34 41 48 44 38 33 30 32 35 34
83 86 93 97 98 99 100 100 100 100 100 100 100 100 99 99 99 99 99 99 99 99 97 94 90 82 72 64 59 54 48 40 31 26 30 40 46 41 29 20 19 22 24
56 65 79 90 95 96 98 99 99 100 100 100 100 100 100 99 98 97 97 97 97 98 97 93 87 79 71 64 59 51 40 29 21 16 18 27 36 34 24 15 11 10 10
27 39 60 78 87 91 95 98 99 100 100 100 99 100 100 99 98 97 96 95 95 96 94 88 80 75 69 62 55 44 33 23 16 10 9 12 18 18 16 13 8 5 4
12 23 45 68 82 89 93 97 98 99 100 100 99 100 100 99 98 97 96 96 95 95 92 83 76 72 65 56 48 38 30 24 17 9 5 5 6 8 11 12 9 5 3

GEFSSE_con_probscp_054.txt.gz
Probability
0 1 2 1 0 0 0 0 0 0 0 0 0 0 0 0 0 0 0 0 0 0 0 0 0 0 0 0 0 0 0 0 0 0 0 0 0 0 0 0 0 0 0
0 1 1 1 0 0 0 0 0 0 0 0 0 0 0 0 0 0 0 0 0 0 0 0 0 0 0 0 0 0 0 0 0 0 0 0 0 0 0 0 0 0 0
0 0 0 0 0 0 0 0 0 0 0 0 0 0 0 0 0 0 0 0 0 0 0 0 0 0 0 0 0 0 0 0 0 0 0 0 0 0 0 0 0 0 0
0 0 0 1 1 1 0 0 0 0 0 0 0 0 0 0 0 0 0 0 0 0 0 0 0 0 0 0 0 0 0 0 0 0 0 0 0 0 0 0 0 0 0
0 0 1 3 3 2 1 0 0 0 0 0 0 0 0 0 0 0 0 0 0 0 0 0 0 0 0 0 0 0 0 0 0 0 0 0 0 0 0 0 0 0 0
0 0 3 6 7 5 3 1 0 0 0 0 0 0 0 0 0 0 0 0 0 0 0 0 0 0 0 0 0 0 0 0 0 0 0 0 0 0 0 0 0 0 0
0 0 4 12 14 11 8 4 2 0 0 0 0 0 0 0 0 0 0 0 0 0 0 0 0 0 0 0 0 0 0 0 0 0 0 0 0 0 0 0 0 0 0
0 0 5 14 19 17 12 8 5 3 1 0 0 0 0 0 0 0 0 0 0 0 0 0 0 0 0 0 0 0 0 0 0 0 0 0 0 0 0 0 0 0 0
0 0 3 9 14 16 14 11 9 6 3 1 0 0 0 0 0 0 0 0 0 0 0 0 0 0 0 0 0 0 0 0 0 0 0 0 0 0 0 1 1 1 1
0 0 1 2 5 8 10 11 11 8 4 1 0 0 0 0 0 0 0 0 0 0 1 1 0 0 0 0 0 0 0 0 0 0 0 0 0 0 1 3 5 5 5
0 0 0 1 2 3 5 8 10 8 4 1 0 0 0 0 0 0 0 1 0 1 2 3 1 0 0 0 0 0 0 0 0 0 0 0 0 1 4 7 9 10 10
1 1 1 2 4 4 4 6 8 8 4 1 0 0 0 0 0 0 0 0 0 1 3 5 3 1 0 0 0 0 0 0 0 0 0 0 0 4 10 16 17 14 12
8 7 5 5 7 8 8 9 11 9 6 3 1 1 0 0 0 0 0 0 1 3 7 9 8 5 2 1 0 0 0 0 0 0 0 1 5 13 22 28 26 20 14
24 21 16 13 12 11 10 12 14 12 10 9 7 6 7 7 4 2 1 2 6 12 17 18 15 11 7 3 0 0 0 1 1 1 2 6 15 28 38 41 36 26 16
45 42 37 31 26 21 20 23 23 21 17 17 18 22 29 30 21 13 10 13 23 33 38 33 23 16 11 7 3 2 1 1 2 3 5 12 28 44 53 53 46 32 20
61 62 64 60 51 44 44 48 50 46 41 40 41 46 58 62 52 39 32 37 51 61 60 48 33 23 17 13 9 5 3 3 3 3 5 14 32 49 58 58 51 40 30
70 75 82 82 77 72 73 76 78 76 73 72 71 73 80 85 80 70 64 68 78 83 76 62 49 39 31 24 17 11 7 6 6 5 7 13 24 37 47 51 51 44 39
76 81 87 90 89 89 89 90 91 92 92 91 89 88 92 95 94 90 87 88 91 91 84 75 67 57 46 36 27 17 11 10 10 10 10 11 13 20 27 35 42 40 35
82 83 85 87 88 89 90 91 92 93 93 93 90 87 88 92 95 96 96 94 92 90 88 81 73 63 52 42 33 21 12 11 12 11 9 8 7 11 14 19 26 28 26
80 80 80 79 81 83 85 86 89 90 91 91 89 82 79 82 88 94 94 91 87 86 84 78 67 56 48 41 31 20 11 9 9 8 7 4 5 8 10 11 13 16 17
66 67 67 69 72 74 77 80 84 86 87 90 89 84 79 78 83 89 90 87 84 82 79 72 61 49 43 37 29 19 10 5 6 7 7 6 6 8 10 9 9 10 10
45 47 51 56 58 59 61 69 77 81 83 85 87 87 84 82 83 85 86 86 84 81 75 66 56 48 40 35 29 20 11 5 4 6 7 6 6 7 8 9 10 9 6
27 30 35 39 39 38 40 51 64 73 76 77 79 81 82 82 81 83 85 85 83 81 74 64 56 51 43 35 29 21 11 4 2 2 3 3 3 5 5 6 8 6 3
18 22 28 29 25 22 24 31 42 52 57 60 61 63 66 68 71 77 82 82 81 79 75 67 59 53 47 39 30 20 11 4 1 1 0 0 1 2 2 2 3 2 1
19 25 31 29 22 18 16 16 18 24 30 33 35 37 39 43 50 59 67 72 74 74 72 67 60 53 47 40 31 22 13 6 3 2 1 1 2 1 1 1 1 0 0
23 30 35 32 25 19 14 8 7 10 13 16 18 21 22 26 31 40 50 59 65 68 67 65 59 53 45 38 31 24 16 9 5 3 2 2 3 2 2 2 2 1 0